This demonstration page uses our WeatherBlox Daily Observations layout. Learn more.

Left ArrowRight Arrow

38.80484, -77.04692

Hourly Observations for January 19, 2022

Temp ( °F °C ) Dew Point ( °F °C ) Humidity (%) Winds ( mph kmh ) Pressure ( in mb ) Visibility ( mi km ) Precip ( " mm )
12:52 am 00:52 Mostly Clear 30 -1.1 21 -6.1 69 69 S 7 11 30.20 1023 10 16 0.00 0.00
1:52 am 01:52 Mostly Clear 31 -0.6 23 -5 72 72 S 3 6 30.19 1022 10 16 0.00 0.00
2:52 am 02:52 Mostly Clear 30 -1.1 22 -5.6 72 72 SSW 8 13 30.17 1022 10 16 0.00 0.00
3:52 am 03:52 Mostly Clear 30 -1.1 22 -5.6 72 72 S 6 9 30.16 1022 10 16 0.00 0.00
4:52 am 04:52 Partly Cloudy 31 -0.6 23 -5 72 72 S 10 17 30.15 1021 10 16 0.00 0.00
5:52 am 05:52 Partly Cloudy 33 0.6 22 -5.6 64 64 S 12 19 30.14 1021 10 16 0.00 0.00
6:52 am 06:52 Mostly Cloudy 33 0.6 21 -6.1 61 61 SSW 10 17 30.15 1021 10 16 0.00 0.00
7:52 am 07:52 Mostly Cloudy 34 1.1 21 -6.1 59 59 S 13 20 30.15 1021 10 16 0.00 0.00
8:52 am 08:52 Mostly Cloudy 35 1.7 22 -5.6 59 59 SSW 10 17 30.15 1021 10 16 0.00 0.00
9:52 am 09:52 Mostly Cloudy 40 4.4 23 -5 51 51 SSW 14 22 30.14 1021 10 16 0.00 0.00
10:52 am 10:52 Mostly Cloudy 44 6.7 24 -4.4 45 45 SSW 16 26 30.12 1020 10 16 0.00 0.00
11:52 am 11:52 Mostly Cloudy 47 8.3 24 -4.4 41 41 SSW 13 20 30.08 1019 10 16 0.00 0.00
12:52 pm 12:52 Mostly Cloudy 52 11.1 25 -3.9 35 35 SSW 17 28 30.05 1018 10 16 0.00 0.00
1:52 pm 13:52 Mostly Cloudy 52 11.1 27 -2.8 38 38 S 12 19 30.01 1016 10 16 0.00 0.00
2:52 pm 14:52 Mostly Cloudy 54 12.2 27 -2.8 35 35 SSW 17 28 30.00 1016 10 16 0.00 0.00
3:52 pm 15:52 Mostly Cloudy 53 11.7 26 -3.3 35 35 SSW 15 24 30.00 1016 10 16 0.00 0.00
4:52 pm 16:52 Mostly Cloudy 52 11.1 26 -3.3 37 37 SSW 15 24 30.00 1016 10 16 0.00 0.00
5:52 pm 17:52 Mostly Cloudy 51 10.6 27 -2.8 39 39 SSW 15 24 30.02 1017 10 16 0.00 0.00
6:52 pm 18:52 Mostly Cloudy 51 10.6 27 -2.8 39 39 SSW 16 26 30.03 1017 10 16 0.00 0.00
7:38 pm 19:38 Cloudy with Light Rain 50 10 30 -1.1 46 46 SSW 13 20 30.03 1017 10 16 0.00 0.00
7:52 pm 19:52 Cloudy 50 10 29 -1.7 44 44 SSW 10 17 30.02 1017 10 16 0.00 0.00
8:52 pm 20:52 Cloudy 50 10 29 -1.7 44 44 SSW 9 15 30.02 1017 10 16 0.00 0.00
9:52 pm 21:52 Cloudy 50 10 28 -2.2 43 43 SSW 8 13 30.03 1017 10 16 0.00 0.00
10:52 pm 22:52 Cloudy with Light Rain 48 8.9 32 0 54 54 SSW 7 11 30.03 1017 10 16 0.00 0.00
11:52 pm 23:52 Cloudy with Light Rain 46 7.8 36 2.2 68 68 SSW 7 11 30.04 1017 7 11 0.03 0.76

Powered by AerisWeather